| time (UTC) | temp F | wind direction | speed knots | gust knots | rain 1hr in | rain 24hr in | rain mn in | humidity % | barometer mb |
| 20260507040030 | 0 | 0.0 | 0.0 | 0.00 | 0.08 | 0.00 | 1006.4 | ||
| 20260507034526 | 0 | 0.0 | 0.0 | 0.00 | 0.08 | 0.08 | 1006.4 | ||
| 20260507033021 | 0 | 0.0 | 0.0 | 0.00 | 0.08 | 0.08 | 1006.1 | ||
| 20260507031617 | 0 | 0.0 | 0.0 | 0.00 | 0.08 | 0.08 | 1006.0 | ||
| 20260507030013 | 0 | 0.0 | 0.0 | 0.00 | 0.08 | 0.08 | 1005.5 | ||
| 20260507024508 | 0 | 0.0 | 0.0 | 0.00 | 0.08 | 0.08 | 1005.4 | ||
| 20260507023004 | 0 | 0.0 | 0.0 | 0.00 | 0.08 | 0.08 | 1005.7 | ||
| 20260507021600 | 0 | 0.0 | 0.0 | 0.00 | 0.08 | 0.08 | 1005.6 | ||
| 20260507020055 | 0 | 0.0 | 0.0 | 0.00 | 0.08 | 0.08 | 1005.2 | ||
| 20260507014604 | 58 | 186 | 0.0 | 0.9 | 0.00 | 0.08 | 0.08 | 94 | 1005.5 |
| 20260507013110 | 58 | 219 | 0.0 | 0.0 | 0.00 | 0.08 | 0.08 | 94 | 1005.6 |
| 20260507011549 | 58 | 233 | 0.0 | 0.9 | 0.00 | 0.08 | 0.08 | 94 | 1005.4 |
| 20260507010047 | 58 | 243 | 0.0 | 0.9 | 0.00 | 0.08 | 0.08 | 94 | 1005.6 |
| 20260507004548 | 58 | 220 | 0.0 | 0.9 | 0.00 | 0.08 | 0.08 | 94 | 1005.6 |
| 20260507003045 | 58 | 229 | 0.0 | 6.1 | 0.00 | 0.08 | 0.08 | 94 | 1005.7 |
| 20260507001604 | 58 | 203 | 0.0 | 0.0 | 0.00 | 0.08 | 0.08 | 94 | 1005.5 |
| 20260507000047 | 58 | 45 | 0.0 | 0.0 | 0.00 | 0.08 | 0.08 | 94 | 1005.4 |
| 20260506234543 | 58 | 225 | 0.0 | 0.0 | 0.00 | 0.08 | 0.08 | 94 | 1005.4 |
| 20260506233046 | 58 | 221 | 0.0 | 0.9 | 0.00 | 0.08 | 0.08 | 94 | 1005.2 |
| 20260506231547 | 59 | 236 | 0.0 | 0.9 | 0.01 | 0.08 | 0.08 | 93 | 1005.2 |
| 20260506230041 | 59 | 159 | 0.0 | 6.1 | 0.02 | 0.08 | 0.08 | 93 | 1005.3 |
| 20260506224540 | 59 | 207 | 0.0 | 0.0 | 0.02 | 0.08 | 0.08 | 93 | 1005.3 |
| 20260506223049 | 59 | 181 | 0.0 | 2.6 | 0.01 | 0.07 | 0.07 | 93 | 1005.4 |
| 20260506221537 | 59 | 188 | 0.0 | 3.5 | 0.01 | 0.07 | 0.07 | 92 | 1005.5 |
| 20260506220036 | 59 | 177 | 0.0 | 10.4 | 0.00 | 0.06 | 0.06 | 92 | 1005.6 |
| 20260506214535 | 59 | 242 | 0.0 | 3.5 | 0.01 | 0.06 | 0.06 | 91 | 1005.7 |
| 20260506213037 | 59 | 181 | 0.0 | 3.5 | 0.01 | 0.06 | 0.06 | 91 | 1005.8 |
| 20260506211533 | 60 | 189 | 0.0 | 2.6 | 0.01 | 0.06 | 0.06 | 91 | 1006.0 |
| 20260506210038 | 60 | 162 | 0.0 | 0.0 | 0.02 | 0.06 | 0.06 | 92 | 1006.2 |
| 20260506204530 | 60 | 205 | 0.0 | 5.2 | 0.02 | 0.05 | 0.05 | 91 | 1006.3 |
| 20260506203040 | 60 | 153 | 0.0 | 3.5 | 0.02 | 0.05 | 0.05 | 91 | 1006.3 |
| 20260506201529 | 60 | 214 | 0.9 | 6.1 | 0.02 | 0.05 | 0.05 | 90 | 1006.3 |
| 20260506200028 | 61 | 188 | 0.0 | 3.5 | 0.02 | 0.04 | 0.04 | 90 | 1006.1 |
| 20260506194528 | 62 | 227 | 0.0 | 3.5 | 0.03 | 0.03 | 0.03 | 89 | 1006.3 |
| 20260506193027 | 62 | 236 | 0.0 | 0.0 | 0.03 | 0.03 | 0.03 | 90 | 1006.4 |
| 20260506191529 | 63 | 214 | 0.0 | 0.0 | 0.03 | 0.03 | 0.03 | 88 | 1006.3 |
| 20260506190025 | 64 | 231 | 0.0 | 0.0 | 0.01 | 0.01 | 0.01 | 86 | 1006.2 |
| 20260506184524 | 65 | 269 | 0.0 | 5.2 | 0.00 | 0.00 | 0.00 | 81 | 1006.3 |
| 20260506183025 | 67 | 214 | 0.0 | 5.2 | 0.00 | 0.00 | 0.00 | 77 | 1006.6 |
| 20260506181530 | 69 | 226 | 0.0 | 7.0 | 0.00 | 0.00 | 0.00 | 72 | 1006.5 |
| 20260506180032 | 71 | 239 | 3.5 | 9.6 | 0.00 | 0.00 | 0.00 | 65 | 1006.7 |
| 20260506174523 | 72 | 210 | 0.0 | 4.3 | 0.00 | 0.00 | 0.00 | 64 | 1006.6 |
| 20260506173021 | 73 | 214 | 0.0 | 6.1 | 0.00 | 0.00 | 0.00 | 60 | 1006.4 |
| 20260506171536 | 74 | 193 | 0.9 | 9.6 | 0.00 | 0.00 | 0.00 | 59 | 1006.4 |
| 20260506170018 | 74 | 150 | 0.9 | 7.0 | 0.00 | 0.00 | 0.00 | 59 | 1006.6 |
| 20260506164516 | 72 | 103 | 0.0 | 7.8 | 0.00 | 0.00 | 0.00 | 62 | 1006.7 |
| 20260506163019 | 72 | 172 | 0.9 | 5.2 | 0.00 | 0.00 | 0.00 | 64 | 1006.9 |
| 20260506161519 | 71 | 226 | 0.0 | 7.8 | 0.00 | 0.00 | 0.00 | 65 | 1007.1 |
| 20260506160010 | 71 | 233 | 0.0 | 4.3 | 0.00 | 0.00 | 0.00 | 65 | 1007.6 |
| 20260506154503 | 71 | 83 | 0.9 | 6.1 | 0.00 | 0.00 | 0.00 | 66 | 1007.9 |
| 20260506153002 | 71 | 176 | 0.0 | 7.8 | 0.00 | 0.00 | 0.00 | 67 | 1008.0 |
| 20260506151600 | 70 | 146 | 0.0 | 0.0 | 0.00 | 0.00 | 0.00 | 68 | 1008.2 |
| 20260506150104 | 70 | 179 | 0.0 | 0.0 | 0.00 | 0.00 | 0.00 | 68 | 1008.3 |
| 20260506144558 | 70 | 241 | 0.9 | 8.7 | 0.00 | 0.00 | 0.00 | 69 | 1008.5 |
| 20260506143057 | 70 | 219 | 0.0 | 0.0 | 0.00 | 0.00 | 0.00 | 69 | 1008.4 |
| 20260506141555 | 69 | 68 | 0.0 | 4.3 | 0.00 | 0.00 | 0.00 | 70 | 1008.3 |
| 20260506140055 | 69 | 129 | 0.0 | 6.1 | 0.00 | 0.00 | 0.00 | 70 | 1008.2 |
| 20260506134615 | 69 | 110 | 0.9 | 5.2 | 0.00 | 0.00 | 0.00 | 72 | 1008.3 |
| 20260506133048 | 67 | 169 | 0.9 | 3.5 | 0.00 | 0.00 | 0.00 | 74 | 1008.6 |
| 20260506131604 | 66 | 181 | 0.9 | 4.3 | 0.00 | 0.00 | 0.00 | 75 | 1008.9 |
| 20260506130044 | 66 | 32 | 0.0 | 0.0 | 0.00 | 0.00 | 0.00 | 76 | 1008.9 |
| 20260506124541 | 66 | 8 | 0.0 | 0.0 | 0.00 | 0.00 | 0.00 | 76 | 1008.9 |
| 20260506123044 | 65 | 248 | 0.0 | 9.6 | 0.00 | 0.00 | 0.00 | 78 | 1008.7 |
| 20260506121538 | 63 | 242 | 0.0 | 0.9 | 0.00 | 0.00 | 0.00 | 79 | 1009.0 |
| 20260506120035 | 63 | 166 | 0.0 | 5.2 | 0.00 | 0.00 | 0.00 | 80 | 1009.0 |
| 20260506114539 | 61 | 211 | 0.0 | 0.0 | 0.00 | 0.00 | 0.00 | 82 | 1009.0 |
| 20260506113035 | 61 | 214 | 0.0 | 5.2 | 0.00 | 0.00 | 0.00 | 83 | 1009.4 |
| 20260506111530 | 60 | 75 | 0.0 | 6.1 | 0.00 | 0.00 | 0.00 | 84 | 1009.6 |
| 20260506110030 | 60 | 153 | 0.0 | 1.7 | 0.00 | 0.00 | 0.00 | 85 | 1009.2 |
| 20260506104528 | 59 | 84 | 0.0 | 1.7 | 0.00 | 0.00 | 0.00 | 85 | 1009.2 |
| 20260506103027 | 0 | 0.0 | 0.0 | 0.00 | 0.00 | 0.00 | 1009.2 | ||
| 20260506101522 | 0 | 0.0 | 0.0 | 0.00 | 0.00 | 0.00 | 1009.2 | ||
| 20260506100030 | 0 | 0.0 | 0.0 | 0.00 | 0.00 | 0.00 | 1009.2 | ||
| 20260506094517 | 0 | 0.0 | 0.0 | 0.00 | 0.00 | 0.00 | 1009.2 | ||
| 20260506093010 | 0 | 0.0 | 0.0 | 0.00 | 0.00 | 0.00 | 1009.0 | ||
| 20260506091506 | 0 | 0.0 | 0.0 | 0.00 | 0.00 | 0.00 | 1009.1 | ||
| 20260506090002 | 0 | 0.0 | 0.0 | 0.00 | 0.00 | 0.00 | 1009.1 | ||
| 20260506084605 | 0 | 0.0 | 0.0 | 0.00 | 0.00 | 0.00 | 1009.0 | ||
| 20260506083114 | 0 | 0.0 | 0.0 | 0.00 | 0.00 | 0.00 | 1009.3 | ||
| 20260506081551 | 0 | 0.0 | 0.0 | 0.00 | 0.00 | 0.00 | 1009.4 | ||
| 20260506073036 | 0 | 0.0 | 0.0 | 0.00 | 0.00 | 0.00 | 1009.1 | ||
| 20260506071534 | 0 | 0.0 | 0.0 | 0.00 | 0.00 | 0.00 | 1008.9 | ||
| 20260506061518 | 0 | 0.0 | 0.0 | 0.00 | 0.00 | 0.00 | 1008.7 | ||
| 20260506050108 | 0 | 0.0 | 0.0 | 0.00 | 0.00 | 0.00 | 1009.0 | ||
| 20260506044547 | 0 | 212 | 0.0 | 0.0 | 0.00 | 0.00 | 0.00 | 1009.1 | |
| 20260506043046 | 62 | 212 | 0.0 | 0.0 | 0.00 | 0.00 | 0.00 | 72 | 1009.2 |
| 20260506041544 | 62 | 196 | 0.0 | 0.0 | 0.00 | 0.00 | 0.00 | 71 | 1009.1 |